Terug naar catalogus

Sitro-AIS-63

ActiefCommunicatieSSO
NORAD 67294·PAYLOAD·🇷🇺 Russia

Gelanceerd Dec 28, 2025 vanaf Vostochny Cosmodrome

Loading…

Volgende Passages (komende 24 uur)

TLE

VersSource: Space-Track

Epoch: Sep 13, 2026, 16:20 UTC

1 67294U 25313AY  26256.68097133  .00008271  00000-0  31941-3 0  9999
2 67294  97.3874 330.7484 0009531  51.5731 308.6362 15.26477965 39470

Volg Sitro-AIS-63 in realtime met AllMySat

Download on the App Store